[[[{"header":{"parameterUnit":"kt","parameterCategory":2,"dx":1,"dy":1,"la1":30.253999710083008,"la2":30.299108505249023,"lo1":-89.0895004272461,"lo2":-89.04439544677734,"nx":28,"ny":28,"refTime":"2022-10-15T21:00:00:Z","depth":"0","parameterNumber":2,"parameterNumberName":"U-component_of_CURRENTS"},"data":[0.7559,0.7559,0.7587,0.7498,0.7492,0.7333,0.7279,0.7219,0.7299,0.7323,0.7461,0.7691,0.8044,0.8291,0.8161,0.8014,0.7393,0.7189,0.7152,0.7807,0.7858,0.7906,0.7561,0.7407,0.7405,0.5773,0.5759,0.5749,0.7618,0.7652,0.7728,0.7717,0.7688,0.7736,0.7733,0.7639,0.7637,0.7875,0.8055,0.8423,0.8669,0.8917,0.9088,0.8927,0.8535,0.8682,0.7928,0.7779,0.8898,0.8587,0.865,0.865,0.865,0.865,0.8651,0.8651,0.7664,0.7722,0.7725,0.7786,0.7819,0.7809,0.779,0.7826,0.7929,0.8008,0.8354,0.8579,0.8951,0.9616,0.9732,0.9681,0.9576,0.9464,0.9267,0.8937,0.8435,0.9448,0.9992,0.9996,1.0,1.0003,1.0006,0,0.7579,0.7608,0.7662,0.7721,0.7765,0.7809,0.7852,0.7925,0.7977,0.8142,0.8358,0.8575,0.9138,0.9363,0.9873,1.0053,0.9457,0.9994,0.9757,0.8722,0.812,0.7823,0.884,0.9515,0.9517,0.9518,0.9519,0.9519,0.7342,0.7469,0.7531,0.7558,0.7564,0.7686,0.7706,0.7765,0.7823,0.807,0.8162,0.8555,0.8735,0.9401,0.9621,1.0067,0.9619,1.0003,0.9677,0.9293,0.9012,0.8575,0.8314,0.9535,0.9533,0.9532,0.953,0,0.717,0.7152,0.7329,0.7347,0.736,0.7498,0.7531,0.7633,0.7735,0.792,0.8006,0.815,0.8513,0.8688,0.9174,0.9226,0.9368,0.9745,0.9245,0.9195,0.9126,0.8862,0.9099,0.8856,1.0256,1.0261,1.0265,0,0.6824,0.698,0.6922,0.7019,0.72,0.7153,0.7358,0.7402,0.7516,0.7636,0.7674,0.7837,0.8005,0.8293,0.8428,0.8846,0.8977,0.8979,0.8995,0.8605,0.8557,0.8413,0.8133,0.911,0.9105,0.9099,0.9095,0,0.6483,0.6596,0.6764,0.6786,0.6804,0.6908,0.6937,0.7014,0.7089,0.7297,0.7383,0.763,0.7742,0.8064,0.8124,0.7967,0.8692,0.8482,0.8724,0.8718,0.8571,0.8527,0.8879,0.9087,0.9086,0.9084,0.9081,0,0.6157,0.6217,0.6422,0.6486,0.6521,0.6596,0.6752,0.6808,0.6925,0.6931,0.7077,0.704,0.7304,0.71,0.7603,0.7339,0.7548,0.7641,0.7668,0.7684,0.7409,0.7707,0.8155,0.7872,0.7811,0.78,0.779,0,0.5847,0.6032,0.5966,0.6151,0.6253,0.6171,0.6245,0.6303,0.6309,0.6453,0.646,0.6568,0.6378,0.6429,0.664,0.6734,0.7071,0.6641,0.7243,0.7264,0.7258,0.7718,0.7365,0.7982,0.7649,0.7664,0.7674,0,0.5621,0.5607,0.5641,0.5721,0.572,0.5772,0.5837,0.5956,0.6075,0.603,0.6253,0.6207,0.6198,0.6212,0.613,0.6355,0.6823,0.6285,0.6296,0.661,0.7544,0.7518,0.7611,0.681,0.6826,0.6839,0.7563,0,0.5393,0.5442,0.547,0.5567,0.5575,0.5637,0.5616,0.5639,0.5605,0.5633,0.5745,0.5661,0.5758,0.569,0.5611,0.5949,0.5953,0.5848,0.5844,0.6066,0.6329,0.6418,0.5326,0.5323,0.532,0.5318,0,0,0.5233,0.5311,0.5233,0.5323,0.5367,0.528,0.5397,0.5374,0.5379,0.5446,0.533,0.5401,0.5316,0.5489,0.5507,0.5402,0.5586,0.5445,0.5867,0.5927,0.5984,0.6252,0.634,0.5313,0.5312,0.5311,0.531,0,0.5199,0.5134,0.521,0.5223,0.5256,0.5253,0.527,0.5277,0.5286,0.5297,0.5267,0.529,0.5202,0.526,0.5262,0.5349,0.5446,0.5285,0.5525,0.583,0.5893,0.5951,0.6226,0.6307,0.5304,0.5304,0.5304,0,0.5129,0.5151,0.5151,0.5177,0.5177,0.5239,0.519,0.5206,0.5274,0.5161,0.52,0.5143,0.5104,0.5121,0.5118,0.5087,0.5378,0.5114,0.5127,0.5258,0.5577,0.5645,0.5706,0.495,0.4949,0.4948,0,0,0.514,0.5152,0.517,0.5179,0.5181,0.5186,0.5192,0.5201,0.5188,0.5179,0.5142,0.5107,0.5097,0.5084,0.5045,0.504,0.5207,0.5077,0.5094,0.5108,0.5243,0.5563,0.5626,0.4946,0.4946,0.4946,0,0,0.5143,0.5164,0.5163,0.5169,0.519,0.5194,0.5192,0.5201,0.5176,0.5164,0.5111,0.5096,0.5095,0.5042,0.5019,0.5056,0.4981,0.4982,0.5109,0.5128,0.5144,0.5325,0.4966,0,0,0,0,0,0.5162,0.5164,0.5163,0.5166,0.5167,0.5191,0.519,0.5192,0.5185,0.5195,0.5155,0.5112,0.5037,0.5015,0.4995,0.5058,0.4916,0.4921,0.4926,0.5085,0.5107,0.5125,0,0,0,0,0,0,0.5163,0.5166,0.5164,0.5167,0.5168,0.5189,0.5173,0.5172,0.5185,0.5186,0.5122,0.5109,0.5065,0.502,0.5003,0.5065,0.4971,0.4918,0.4923,0.4927,0.5093,0.511,0.5125,0,0,0,0,0,0.5165,0.5167,0.5171,0.5166,0.5167,0.5174,0.5173,0.5173,0.5176,0.512,0.511,0.5185,0.5065,0.5049,0.5009,0.5076,0.4982,0.4976,0.4921,0.4925,0.4928,0.5101,0,0,0,0,0,0,0.5166,0.5148,0.5171,0.5171,0.5177,0.5173,0.5173,0.5173,0.5107,0.5102,0.5177,0.5178,0.5065,0.5052,0.5039,0.5086,0.4991,0.4985,0.4982,0.4924,0.4927,0.4929,0,0,0,0,0,0,0.5148,0.5148,0.517,0.5184,0.5185,0.5173,0.5173,0.5108,0.5103,0.5165,0.5166,0.5178,0.5069,0.5054,0.5044,0.4944,0.4998,0.4992,0.4988,0.4986,0.4926,0.4928,0,0,0,0,0,0,0.5148,0.5147,0.5183,0.5184,0.5185,0.5179,0.5111,0.5097,0.5166,0.5165,0.5168,0.5169,0.5071,0.5061,0.5048,0.4952,0.4946,0.4998,0.4994,0.4991,0.499,0,0,0,0,0,0,0,0.5147,0.515,0.5181,0.5184,0.5185,0.5174,0.5173,0.5172,0.5166,0.5167,0.5168,0.5169,0.5031,0.5025,0.5019,0.4959,0,0,0.4999,0.4996,0,0,0,0,0,0,0,0,0.515,0.515,0.5181,0.5182,0.5182,0.5174,0.5173,0.5172,0.5166,0.5167,0.5168,0.5168,0.503,0.5024,0.5019,0,0,0,0,0,0,0,0,0,0,0,0,0,0,0,0.5181,0.5182,0,0.5174,0.5173,0.5172,0.5166,0.5167,0.5167,0.5168,0.5028,0.5024,0.502,0,0,0,0,0,0,0,0,0,0,0,0,0,0,0,0,0,0,0,0,0,0,0,0,0,0,0,0,0,0,0,0,0,0,0,0,0,0,0,0,0,0,0,0,0,0,0,0,0,0,0,0,0,0,0,0,0,0,0,0,0,0,0,0,0,0,0,0,0]}],[{"header":{"parameterUnit":"kt","parameterCategory":2,"dx":1,"dy":1,"la1":30.253999710083008,"la2":30.299108505249023,"lo1":-89.0895004272461,"lo2":-89.04439544677734,"nx":28,"ny":28,"refTime":"2022-10-15T21:00:00:Z","depth":"0","parameterNumber":3,"parameterNumberName":"V-component_of_CURRENTS"},"data":[0.0076,0.0142,0.0202,0.0408,0.0532,0.0742,0.0893,0.1199,0.1594,0.2319,0.2904,0.3338,0.3154,0.0818,-0.0916,-0.1385,-0.2036,-0.2118,-0.2461,-0.1914,-0.1854,-0.1797,-0.196,-0.2385,-0.2387,-0.3335,-0.3345,-0.3352,0.0094,0.0147,0.0255,0.0395,0.0539,0.0607,0.0856,0.1029,0.1313,0.1779,0.2058,0.251,0.1983,0.1425,0.0422,-0.0412,-0.0771,-0.092,-0.1198,-0.1309,-0.034,-0.0443,-0.0552,-0.0552,-0.0551,-0.0551,-0.055,-0.055,0.0106,0.0155,0.0225,0.0338,0.0461,0.0632,0.0758,0.0936,0.1164,0.1498,0.1611,0.2002,0.1824,0.1534,0.1051,0.0227,0.0247,-0.0059,-0.0282,-0.0387,-0.066,0.031,0.0501,0.0501,0.0501,0.0501,0.05,0,0.0078,0.0117,0.0175,0.0288,0.0384,0.0511,0.0641,0.0772,0.0919,0.1096,0.1345,0.1482,0.1475,0.1412,0.1151,0.0919,0.023,0.0567,0.0075,-0.0331,-0.0603,-0.0867,0.0133,0.0484,0.0483,0.0483,0.0483,0.0483,0.0001,0.0067,0.0162,0.0216,0.0238,0.0366,0.0458,0.0555,0.0659,0.0887,0.0995,0.1126,0.1237,0.1186,0.0942,0.0785,0.0358,0.057,0.0394,-0.0166,-0.0503,-0.0687,-0.0864,0.0479,0.0479,0.048,0.048,0,-0.0048,-0.0045,0.0055,0.0126,0.0163,0.0263,0.0364,0.048,0.0572,0.0743,0.0798,0.0865,0.0929,0.0804,0.0791,0.0582,0.0308,0.0465,0.0397,0.0321,-0.026,-0.0517,-0.0504,-0.0694,0.0432,0.0432,0.0432,0,-0.0186,-0.0101,-0.0112,-0.0072,0.0101,0.0064,0.0249,0.0283,0.0389,0.0518,0.0475,0.0598,0.0508,0.0536,0.0371,0.0315,0.0438,0.0124,0.0056,0.0032,0.0011,-0.0426,-0.0701,0.0261,0.026,0.0259,0.0258,0,-0.0383,-0.0313,-0.0207,-0.0208,-0.0195,-0.0103,-0.0076,-0.002,0.0046,0.0165,0.0226,0.0325,0.0349,0.0353,0.015,0.0042,0.025,0.0067,-0.0043,-0.0057,-0.006,-0.0089,-0.0126,0.0256,0.0256,0.0255,0.0255,0,-0.0584,-0.0569,-0.0439,-0.0412,-0.0394,-0.0333,-0.0234,-0.0187,-0.012,-0.0131,-0.0068,-0.0161,-0.0034,-0.0253,-0.0141,-0.0249,-0.0318,-0.0387,-0.0384,-0.0513,-0.078,-0.0616,-0.0268,-0.0746,-0.0516,-0.0522,-0.0526,0,-0.0795,-0.0713,-0.0789,-0.067,-0.0646,-0.0755,-0.0657,-0.0654,-0.0695,-0.0616,-0.0652,-0.0605,-0.08,-0.0794,-0.0696,-0.0787,-0.0653,-0.0826,-0.0786,-0.0785,-0.0856,-0.0517,-0.0509,-0.0353,-0.0593,-0.0586,-0.0581,0,-0.0997,-0.1087,-0.1067,-0.1053,-0.1135,-0.1143,-0.1063,-0.1033,-0.095,-0.1038,-0.0891,-0.0934,-0.1011,-0.1022,-0.1134,-0.1028,-0.0787,-0.1181,-0.1182,-0.1101,-0.0528,-0.061,-0.0574,-0.0823,-0.0814,-0.0806,-0.0634,0,-0.1249,-0.1249,-0.1226,-0.1258,-0.1288,-0.127,-0.1368,-0.1375,-0.1453,-0.1498,-0.1422,-0.1544,-0.153,-0.1558,-0.1666,-0.1419,-0.1512,-0.1607,-0.1685,-0.1456,-0.1432,-0.1389,-0.1979,-0.1985,-0.1989,-0.1993,0,0,-0.1418,-0.1412,-0.1571,-0.1549,-0.156,-0.1745,-0.1678,-0.1733,-0.1849,-0.1818,-0.1936,-0.1952,-0.2045,-0.1895,-0.1849,-0.1939,-0.1915,-0.1917,-0.1614,-0.1571,-0.1532,-0.1492,-0.1446,-0.2002,-0.2003,-0.2005,-0.2007,0,-0.1513,-0.1618,-0.158,-0.1643,-0.1736,-0.1816,-0.1815,-0.1946,-0.1974,-0.1993,-0.2094,-0.2094,-0.2187,-0.2167,-0.2176,-0.2019,-0.2077,-0.2054,-0.1792,-0.166,-0.1612,-0.1569,-0.1519,-0.1474,-0.2018,-0.2017,-0.2017,0,-0.1655,-0.1738,-0.1747,-0.1856,-0.1927,-0.1924,-0.2081,-0.2118,-0.2087,-0.2292,-0.227,-0.2361,-0.2435,-0.2388,-0.238,-0.2433,-0.2208,-0.2348,-0.2326,-0.2257,-0.2126,-0.2071,-0.2023,-0.2636,-0.2637,-0.2638,0,0,-0.172,-0.1745,-0.1882,-0.1884,-0.192,-0.2055,-0.2098,-0.2166,-0.2254,-0.2289,-0.2376,-0.2438,-0.2458,-0.2465,-0.252,-0.2486,-0.2475,-0.2414,-0.2385,-0.236,-0.2278,-0.2142,-0.209,-0.2642,-0.2642,-0.2642,0,0,-0.1749,-0.1888,-0.1943,-0.1963,-0.2042,-0.2187,-0.2191,-0.2274,-0.2346,-0.2346,-0.2474,-0.2497,-0.2477,-0.2554,-0.2596,-0.2503,-0.2635,-0.263,-0.2417,-0.2383,-0.2355,-0.2238,-0.2697,0,0,0,0,0,-0.189,-0.187,-0.1919,-0.194,-0.209,-0.2164,-0.2188,-0.2292,-0.2343,-0.234,-0.2424,-0.2492,-0.2582,-0.2624,-0.2645,-0.2526,-0.2695,-0.2685,-0.2677,-0.2399,-0.2361,-0.233,0,0,0,0,0,0,-0.1899,-0.1923,-0.192,-0.2059,-0.2095,-0.2166,-0.2261,-0.2291,-0.2344,-0.2355,-0.2477,-0.2496,-0.2576,-0.262,-0.2637,-0.252,-0.2692,-0.2691,-0.2683,-0.2676,-0.2386,-0.2355,-0.2329,0,0,0,0,0,-0.1907,-0.1926,-0.2129,-0.2062,-0.2093,-0.2232,-0.2262,-0.2287,-0.2331,-0.2455,-0.2478,-0.2402,-0.2574,-0.2594,-0.2631,-0.2507,-0.268,-0.2687,-0.2686,-0.268,-0.2674,-0.2371,0,0,0,0,0,0,-0.1913,-0.1964,-0.2139,-0.2154,-0.2059,-0.2229,-0.2255,-0.2282,-0.243,-0.2453,-0.2385,-0.2392,-0.2573,-0.2588,-0.2603,-0.2494,-0.2671,-0.2677,-0.2681,-0.2681,-0.2676,-0.2672,0,0,0,0,0,0,-0.1954,-0.1975,-0.2147,-0.2137,-0.2153,-0.2227,-0.225,-0.2311,-0.2428,-0.2352,-0.2363,-0.2386,-0.2533,-0.2584,-0.2596,-0.269,-0.2664,-0.267,-0.2674,-0.2677,-0.2677,-0.2673,0,0,0,0,0,0,-0.1966,-0.1984,-0.2134,-0.2146,-0.2159,-0.2338,-0.2283,-0.2421,-0.2447,-0.2343,-0.2449,-0.245,-0.2527,-0.2542,-0.2591,-0.268,-0.2687,-0.2664,-0.2668,-0.2671,-0.2673,0,0,0,0,0,0,0,-0.1975,-0.1818,-0.2046,-0.2153,-0.2165,-0.2293,-0.2297,-0.2302,-0.2447,-0.2448,-0.2449,-0.2449,-0.263,-0.2636,-0.2643,-0.2671,0,0,-0.2664,-0.2666,0,0,0,0,0,0,0,0,-0.1814,-0.1817,-0.2047,-0.205,-0.2052,-0.2293,-0.2297,-0.2301,-0.2447,-0.2448,-0.2449,-0.2449,-0.2632,-0.2637,-0.2642,0,0,0,0,0,0,0,0,0,0,0,0,0,0,0,-0.2047,-0.2049,0,-0.2294,-0.2297,-0.23,-0.2448,-0.2448,-0.2448,-0.2449,-0.2633,-0.2637,-0.2642,0,0,0,0,0,0,0,0,0,0,0,0,0,0,0,0,0,0,0,0,0,0,0,0,0,0,0,0,0,0,0,0,0,0,0,0,0,0,0,0,0,0,0,0,0,0,0,0,0,0,0,0,0,0,0,0,0,0,0,0,0,0,0,0,0,0,0,0,0]}]],[[{"header":{"parameterUnit":"kt","parameterCategory":2,"dx":1,"dy":1,"la1":30.253999710083008,"la2":30.299108505249023,"lo1":-89.0895004272461,"lo2":-89.04439544677734,"nx":28,"ny":28,"refTime":"2022-10-15T21:00:00:Z","depth":"2","parameterNumber":2,"parameterNumberName":"U-component_of_CURRENTS"},"data":[0.3748,0.3761,0.3806,0.3827,0.392,0.3903,0.3926,0.3798,0.3828,0.3574,0.3553,0.3905,0.4185,0.3621,0.3571,0.34,0.3773,0.3269,0.4398,0.469,0.478,0.5062,0.4778,0,0,0,0,0,0.3809,0.3878,0.3951,0.4067,0.4097,0.426,0.4383,0.4332,0.4288,0.4482,0.4524,0.4178,0.4148,0.4395,0.4164,0.4066,0.4143,0.394,0.4096,0.4204,0.4301,0.404,0.3237,0.3232,0.3228,0.3223,0,0,0.3941,0.3965,0.4075,0.419,0.4307,0.4405,0.445,0.4587,0.4726,0.4955,0.5203,0.5243,0.5389,0.5181,0.5072,0.5034,0.5408,0.5236,0.5283,0.5341,0.5124,0.4854,0.4612,0.4617,0.4622,0.4626,0.4629,0,0.4045,0.4109,0.4185,0.432,0.4428,0.4565,0.4746,0.4875,0.5249,0.5445,0.5665,0.5814,0.6052,0.5902,0.5915,0.5887,0.6153,0.591,0.6748,0.5883,0.5626,0.556,0.558,0.5576,0.5587,0.5595,0.5601,0.5605,0.4149,0.4188,0.4375,0.4436,0.4516,0.4678,0.4786,0.5104,0.5266,0.577,0.5896,0.6269,0.6401,0.6619,0.6608,0.6654,0.6882,0.6179,0.6066,0.658,0.6512,0.6495,0.6476,0.5722,0.5707,0.5695,0.5685,0,0.4196,0.4306,0.4404,0.459,0.4657,0.4738,0.5013,0.515,0.5467,0.5784,0.5935,0.6332,0.6597,0.683,0.7156,0.7031,0.7132,0.7027,0.6505,0.6386,0.6559,0.6525,0.6722,0.6708,0.6697,0.6688,0.668,0,0.4288,0.4359,0.4514,0.456,0.4689,0.483,0.5017,0.5195,0.5511,0.5727,0.6035,0.626,0.665,0.6863,0.6971,0.6986,0.728,0.6898,0.6847,0.6514,0.6437,0.7109,0.707,0.7441,0.744,0.7439,0.7439,0,0.4283,0.4449,0.4538,0.4593,0.4782,0.4871,0.4987,0.5238,0.5405,0.5769,0.5954,0.6299,0.6519,0.6742,0.6884,0.6858,0.7213,0.7188,0.6832,0.6796,0.6507,0.6426,0.7438,0.7437,0.7437,0.7437,0.7437,0,0.4338,0.4423,0.4538,0.4697,0.4741,0.4829,0.5064,0.5198,0.5491,0.5634,0.5895,0.6042,0.6382,0.6337,0.6717,0.6609,0.6672,0.6753,0.676,0.6366,0.6173,0.5886,0.6006,0.6679,0.6673,0.6668,0.6664,0,0.4307,0.4426,0.4497,0.4631,0.4703,0.4826,0.496,0.512,0.5272,0.5477,0.5682,0.589,0.5887,0.6011,0.6198,0.6365,0.6496,0.6331,0.6519,0.6523,0.6101,0.6302,0.5912,0.5959,0.6602,0.6608,0.6613,0,0.4263,0.4402,0.4421,0.4475,0.4624,0.4694,0.4857,0.502,0.5134,0.5294,0.5484,0.5708,0.5787,0.5871,0.5939,0.6118,0.637,0.6084,0.6091,0.6087,0.6689,0.626,0.626,0.6424,0.6434,0.6442,0.6563,0,0.4267,0.4334,0.4387,0.4484,0.4564,0.4658,0.476,0.4867,0.4934,0.501,0.5246,0.5372,0.5543,0.5595,0.5609,0.5901,0.5823,0.5821,0.5751,0.5953,0.5962,0.6002,0.55,0.5497,0.5495,0.5493,0,0,0.4195,0.4262,0.4316,0.4386,0.4447,0.4512,0.4586,0.4669,0.4789,0.4866,0.4849,0.5123,0.5192,0.542,0.5497,0.5507,0.555,0.5492,0.5829,0.5865,0.59,0.5923,0.5963,0.549,0.5489,0.5488,0.5488,0,0.418,0.4229,0.4278,0.4343,0.4437,0.4481,0.4514,0.4598,0.4657,0.4785,0.4811,0.496,0.5079,0.5192,0.5253,0.5455,0.5443,0.5469,0.5612,0.5803,0.5842,0.5878,0.5907,0.5945,0.5483,0.5483,0.5483,0,0.4127,0.4172,0.4197,0.429,0.4342,0.4414,0.4396,0.4488,0.4562,0.4553,0.4685,0.4752,0.4837,0.4996,0.507,0.5027,0.5341,0.5218,0.5231,0.5276,0.5471,0.5516,0.5556,0.5041,0.504,0.5038,0,0,0.4114,0.4164,0.4223,0.4286,0.4322,0.437,0.4413,0.444,0.4509,0.4542,0.4597,0.4678,0.4782,0.4844,0.4931,0.5071,0.5115,0.5163,0.5184,0.5201,0.5254,0.5452,0.5495,0.5032,0.5032,0.5032,0,0,0.4106,0.4163,0.4166,0.4231,0.4303,0.4359,0.4414,0.4423,0.4504,0.4511,0.4535,0.4555,0.4712,0.4734,0.4652,0.492,0.4836,0.4854,0.49,0.4926,0.4946,0.4986,0.4607,0,0,0,0,0,0.4107,0.4154,0.4157,0.4172,0.4258,0.4353,0.4368,0.4399,0.4379,0.4434,0.4486,0.447,0.471,0.4636,0.4657,0.4766,0.4955,0.4969,0.4982,0.5074,0.5102,0.5125,0,0,0,0,0,0,0.4113,0.413,0.4156,0.4208,0.4228,0.435,0.4307,0.4317,0.4376,0.4378,0.4459,0.4471,0.4487,0.4626,0.4645,0.4748,0.4601,0.4961,0.4972,0.4983,0.5084,0.5106,0.5125,0,0,0,0,0,0.4118,0.4132,0.4259,0.4208,0.4225,0.428,0.4305,0.4314,0.4365,0.4415,0.4428,0.4391,0.4486,0.4507,0.4637,0.474,0.4588,0.4595,0.4968,0.4977,0.4986,0.5095,0,0,0,0,0,0,0.4122,0.4138,0.4263,0.427,0.4196,0.4276,0.4288,0.4311,0.44,0.4412,0.4345,0.4345,0.4487,0.4502,0.4518,0.4739,0.4577,0.4584,0.4589,0.4975,0.4982,0.4989,0,0,0,0,0,0,0.4131,0.4144,0.4267,0.425,0.4255,0.4272,0.4283,0.436,0.4402,0.4325,0.4327,0.4344,0.4478,0.4499,0.4511,0.463,0.4569,0.4576,0.4581,0.4584,0.4981,0.4987,0,0,0,0,0,0,0.4137,0.4148,0.4248,0.4252,0.4257,0.4338,0.4343,0.4435,0.4364,0.4321,0.4362,0.436,0.4476,0.4488,0.4507,0.462,0.4627,0.4569,0.4574,0.4577,0.4579,0,0,0,0,0,0,0,0.4142,0.4058,0.4224,0.4254,0.4258,0.4338,0.4339,0.4341,0.4364,0.4363,0.4362,0.4361,0.4529,0.4537,0.4545,0.4612,0,0,0.4568,0.4572,0,0,0,0,0,0,0,0,0.4055,0.4058,0.4224,0.4226,0.4227,0.4338,0.4339,0.434,0.4364,0.4363,0.4362,0.4361,0.4532,0.4538,0.4544,0,0,0,0,0,0,0,0,0,0,0,0,0,0,0,0.4224,0.4226,0,0.4338,0.4339,0.434,0.4363,0.4363,0.4362,0.4362,0.4533,0.4538,0.4543,0,0,0,0,0,0,0,0,0,0,0,0,0,0,0,0,0,0,0,0,0,0,0,0,0,0,0,0,0,0,0,0,0,0,0,0,0,0,0,0,0,0,0,0,0,0,0,0,0,0,0,0,0,0,0,0,0,0,0,0,0,0,0,0,0,0,0,0,0]}],[{"header":{"parameterUnit":"kt","parameterCategory":2,"dx":1,"dy":1,"la1":30.253999710083008,"la2":30.299108505249023,"lo1":-89.0895004272461,"lo2":-89.04439544677734,"nx":28,"ny":28,"refTime":"2022-10-15T21:00:00:Z","depth":"2","parameterNumber":3,"parameterNumberName":"V-component_of_CURRENTS"},"data":[0.0785,0.1021,0.1151,0.165,0.1874,0.2334,0.2633,0.3037,0.3211,0.3249,0.3062,0.2692,0.1786,0.1028,0.0185,-0.0345,-0.0354,-0.0439,-0.0408,-0.002,0.0012,-0.0525,-0.0492,0,0,0,0,0,0.0698,0.083,0.1047,0.1357,0.166,0.1737,0.2218,0.2524,0.297,0.3062,0.313,0.2404,0.1656,0.0921,-0.0136,-0.0804,-0.0752,-0.0951,-0.0723,-0.0699,-0.0677,-0.0673,-0.0913,-0.0914,-0.0915,-0.0915,0,0,0.055,0.0664,0.0831,0.1065,0.1285,0.1632,0.19,0.2201,0.2568,0.2937,0.2854,0.276,0.2065,0.0835,0.0186,-0.0488,-0.0501,-0.0727,-0.0708,-0.0688,-0.0694,-0.0766,-0.0935,-0.0936,-0.0936,-0.0936,-0.0937,0,0.0455,0.0499,0.0625,0.0854,0.1035,0.1281,0.154,0.1771,0.2044,0.2282,0.2574,0.2548,0.1957,0.1336,0.0413,0.0012,-0.0215,-0.0419,-0.0256,-0.0265,-0.0326,-0.0394,-0.0388,-0.0407,-0.0405,-0.0403,-0.0402,-0.0401,0.0339,0.041,0.058,0.0692,0.0753,0.0934,0.1112,0.1269,0.1494,0.1828,0.2045,0.1969,0.193,0.1326,0.0699,0.0067,0.0025,-0.033,-0.0419,-0.0362,-0.0436,-0.0431,-0.0429,-0.0374,-0.0377,-0.038,-0.0382,0,0.0288,0.0323,0.0463,0.0591,0.0647,0.0766,0.0996,0.1162,0.1277,0.1594,0.1675,0.1714,0.1552,0.1184,0.0868,0.0505,0.0173,-0.0039,-0.0011,-0.0088,-0.0389,-0.0394,-0.0432,-0.0439,-0.0445,-0.0451,-0.0455,0,0.0217,0.0301,0.038,0.0442,0.0609,0.064,0.0823,0.0878,0.1047,0.1272,0.1184,0.1371,0.1112,0.1001,0.0678,0.0315,0.0472,-0.0061,-0.0141,-0.0082,-0.0101,0.0026,0.0012,0.0165,0.0166,0.0167,0.0168,0,0.0153,0.024,0.0339,0.0369,0.0482,0.0541,0.06,0.0669,0.0782,0.0878,0.1013,0.0967,0.102,0.083,0.0534,0.0498,0.0376,0.0296,-0.0103,-0.0124,-0.0122,-0.0148,0.0169,0.0169,0.017,0.017,0.0171,0,0.0089,0.0146,0.0244,0.0369,0.0389,0.0436,0.0551,0.059,0.0654,0.0671,0.0697,0.0659,0.0673,0.0512,0.0388,0.0404,0.0202,0.0086,0.0078,-0.0142,-0.0294,-0.0331,-0.0271,-0.0105,-0.0106,-0.0107,-0.0108,0,0.005,0.0125,0.0119,0.0214,0.026,0.0242,0.0304,0.0318,0.0305,0.0376,0.0315,0.0357,0.0174,0.0204,0.0172,0.0082,0.0027,0.0023,-0.0105,-0.011,-0.0278,-0.0212,-0.0161,-0.0277,-0.0118,-0.0117,-0.0116,0,0.0001,0.0035,0.0037,0.0078,0.0065,0.0087,0.0119,0.0131,0.019,0.0116,0.0209,0.0102,0.0068,0.0043,-0.0036,-0.0036,-0.001,-0.0127,-0.0129,-0.0166,-0.0006,-0.0208,-0.0221,-0.0008,-0.0004,-0.0001,-0.0125,0,-0.0024,-0.001,0.0006,-0.0004,0.0,0.0015,-0.0023,-0.0024,-0.0066,-0.0099,-0.0086,-0.0178,-0.019,-0.0234,-0.0308,-0.0232,-0.0299,-0.0329,-0.0361,-0.0273,-0.0353,-0.0346,-0.0475,-0.0478,-0.048,-0.0482,0,0,-0.008,-0.0074,-0.0126,-0.0115,-0.0111,-0.0189,-0.0162,-0.019,-0.0259,-0.0255,-0.0316,-0.0366,-0.0445,-0.0402,-0.0402,-0.0455,-0.0478,-0.0428,-0.0337,-0.0321,-0.0306,-0.0374,-0.0364,-0.0487,-0.0487,-0.0488,-0.0489,0,-0.0109,-0.0138,-0.0128,-0.0147,-0.0193,-0.0225,-0.0224,-0.0291,-0.0315,-0.0336,-0.0411,-0.044,-0.0502,-0.0525,-0.0546,-0.049,-0.0543,-0.0512,-0.0381,-0.0359,-0.0339,-0.0322,-0.0385,-0.0374,-0.0495,-0.0494,-0.0494,0,-0.0167,-0.0199,-0.0202,-0.0248,-0.0286,-0.0285,-0.0366,-0.0379,-0.0373,-0.0485,-0.0494,-0.0557,-0.0618,-0.0618,-0.0626,-0.0648,-0.06,-0.0629,-0.0619,-0.0579,-0.0559,-0.0537,-0.0518,-0.076,-0.076,-0.076,0,0,-0.0195,-0.0197,-0.0266,-0.0263,-0.028,-0.0351,-0.0372,-0.041,-0.046,-0.0482,-0.054,-0.0593,-0.0624,-0.0638,-0.0682,-0.0676,-0.0703,-0.0655,-0.0643,-0.0632,-0.0587,-0.0564,-0.0543,-0.0761,-0.0761,-0.0761,0,0,-0.0211,-0.0272,-0.0309,-0.0309,-0.0352,-0.0422,-0.0423,-0.0468,-0.0513,-0.0518,-0.0597,-0.0614,-0.0626,-0.0672,-0.0678,-0.0675,-0.0736,-0.0736,-0.0621,-0.0607,-0.0595,-0.0528,-0.0735,0,0,0,0,0,-0.0282,-0.0262,-0.0295,-0.0305,-0.0376,-0.0407,-0.0418,-0.0479,-0.0511,-0.0507,-0.0567,-0.0605,-0.0691,-0.0698,-0.071,-0.0664,-0.0774,-0.0772,-0.077,-0.0624,-0.0608,-0.0595,0,0,0,0,0,0,-0.0287,-0.0297,-0.0296,-0.0362,-0.038,-0.0408,-0.0467,-0.0484,-0.0512,-0.052,-0.0593,-0.0607,-0.0657,-0.0696,-0.0705,-0.066,-0.0732,-0.0773,-0.0771,-0.077,-0.0619,-0.0606,-0.0594,0,0,0,0,0,-0.029,-0.0299,-0.0393,-0.0364,-0.0379,-0.0457,-0.0468,-0.0482,-0.0506,-0.0582,-0.0596,-0.055,-0.0655,-0.0668,-0.0702,-0.0654,-0.0725,-0.0729,-0.0772,-0.077,-0.0769,-0.0612,0,0,0,0,0,0,-0.0293,-0.0316,-0.0398,-0.0405,-0.0372,-0.0457,-0.0471,-0.0481,-0.0567,-0.0581,-0.0541,-0.0546,-0.0654,-0.0664,-0.0673,-0.0647,-0.072,-0.0724,-0.0726,-0.0771,-0.077,-0.0769,0,0,0,0,0,0,-0.0312,-0.0321,-0.0402,-0.0408,-0.0417,-0.0456,-0.0468,-0.0499,-0.0567,-0.0522,-0.0529,-0.0542,-0.064,-0.0661,-0.0668,-0.0714,-0.0717,-0.072,-0.0722,-0.0723,-0.077,-0.0769,0,0,0,0,0,0,-0.0318,-0.0326,-0.0406,-0.0413,-0.0421,-0.0511,-0.0485,-0.0554,-0.0573,-0.0517,-0.0576,-0.0578,-0.0636,-0.0645,-0.0665,-0.0706,-0.0712,-0.0717,-0.0719,-0.072,-0.0721,0,0,0,0,0,0,0,-0.0322,-0.0247,-0.0353,-0.0417,-0.0425,-0.0476,-0.0478,-0.048,-0.0573,-0.0575,-0.0576,-0.0577,-0.0698,-0.0701,-0.0705,-0.0701,0,0,-0.0716,-0.0718,0,0,0,0,0,0,0,0,-0.0245,-0.0246,-0.0353,-0.0354,-0.0356,-0.0476,-0.0478,-0.0479,-0.0573,-0.0575,-0.0576,-0.0577,-0.0699,-0.0702,-0.0705,0,0,0,0,0,0,0,0,0,0,0,0,0,0,0,-0.0353,-0.0354,0,-0.0476,-0.0478,-0.0479,-0.0574,-0.0574,-0.0575,-0.0576,-0.07,-0.0702,-0.0704,0,0,0,0,0,0,0,0,0,0,0,0,0,0,0,0,0,0,0,0,0,0,0,0,0,0,0,0,0,0,0,0,0,0,0,0,0,0,0,0,0,0,0,0,0,0,0,0,0,0,0,0,0,0,0,0,0,0,0,0,0,0,0,0,0,0,0,0,0]}]],[[{"header":{"parameterUnit":"kt","parameterCategory":2,"dx":1,"dy":1,"la1":30.253999710083008,"la2":30.299108505249023,"lo1":-89.0895004272461,"lo2":-89.04439544677734,"nx":28,"ny":28,"refTime":"2022-10-15T21:00:00:Z","depth":"4","parameterNumber":2,"parameterNumberName":"U-component_of_CURRENTS"},"data":[0.0779,0.0875,0.0987,0.1012,0.1073,0.1199,0.1375,0.1619,0.1718,0.207,0.2109,0.2332,0.2385,0.2575,0.2457,0.2471,0.2428,0.266,0.2652,0.2704,0.2725,0.2744,0.2718,0,0,0,0,0,0.0851,0.0917,0.104,0.1161,0.1297,0.1378,0.167,0.1874,0.2222,0.2279,0.2466,0.2538,0.2567,0.2649,0.2532,0.2701,0.2704,0.2546,0.2576,0.2717,0.274,0.2707,0,0,0,0,0,0,0.0941,0.0998,0.1144,0.1261,0.1403,0.1517,0.1728,0.196,0.2157,0.2598,0.2608,0.2829,0.3008,0.2926,0.2876,0.2813,0.2751,0.264,0.2665,0.2688,0.2646,0.252,0.2362,0,0,0,0,0,0.1024,0.1109,0.1233,0.136,0.1516,0.169,0.1979,0.2092,0.2454,0.2705,0.2876,0.2963,0.3033,0.304,0.3004,0.2923,0.3053,0.295,0.2961,0.2934,0.2856,0.2895,0.291,0.2828,0.2831,0.2833,0.2834,0,0.113,0.1148,0.1388,0.1456,0.1607,0.1825,0.197,0.2316,0.2488,0.2869,0.2932,0.3168,0.3281,0.3176,0.3228,0.3131,0.3088,0.3012,0.2983,0.2893,0.2925,0.2935,0.2943,0.2853,0.2851,0.285,0.2848,0,0.1203,0.1293,0.1407,0.1647,0.1727,0.1835,0.2246,0.2374,0.2643,0.2864,0.2976,0.3215,0.3313,0.3362,0.3425,0.3276,0.3227,0.3146,0.3304,0.3345,0.2976,0.2977,0.2884,0.2877,0.2871,0.2866,0.2862,0,0.1343,0.1419,0.1565,0.1644,0.1778,0.1979,0.2214,0.2379,0.2627,0.2783,0.3016,0.3117,0.3264,0.3335,0.3327,0.3238,0.337,0.3129,0.315,0.3357,0.3357,0.3191,0.3171,0.3368,0.3368,0.3369,0.3369,0,0.1357,0.1538,0.1626,0.1704,0.1921,0.2053,0.2233,0.2435,0.2581,0.2822,0.2922,0.3062,0.3203,0.3222,0.331,0.3325,0.3364,0.3405,0.3193,0.318,0.3186,0.3165,0.337,0.337,0.337,0.337,0.337,0,0.1476,0.1525,0.1657,0.1851,0.1927,0.2047,0.2272,0.241,0.2593,0.267,0.2792,0.2885,0.3102,0.3056,0.3196,0.323,0.3259,0.3298,0.33,0.2944,0.2982,0.3092,0.3318,0.3318,0.3318,0.3318,0.3318,0,0.1437,0.1522,0.1651,0.181,0.1896,0.2066,0.2182,0.2315,0.243,0.2544,0.2646,0.2797,0.2797,0.2958,0.3043,0.3196,0.3251,0.3248,0.3169,0.316,0.2999,0.3154,0.3373,0.3318,0.3318,0.3318,0.3318,0,0.1371,0.1552,0.1571,0.1658,0.1848,0.1899,0.207,0.2224,0.2314,0.2391,0.2495,0.2689,0.273,0.278,0.2949,0.3054,0.3244,0.3081,0.3076,0.3065,0.3353,0.3175,0.3158,0.337,0.3371,0.3371,0.3318,0,0.1444,0.1508,0.1546,0.1661,0.1746,0.1859,0.197,0.2075,0.2142,0.2185,0.2346,0.2435,0.2528,0.2674,0.2729,0.2959,0.2914,0.2925,0.284,0.3002,0.2956,0.2958,0.2834,0.2827,0.2821,0.2816,0,0,0.1377,0.1449,0.1481,0.1541,0.1616,0.1703,0.1812,0.1889,0.199,0.2055,0.2039,0.2195,0.2294,0.2523,0.2644,0.2687,0.268,0.2706,0.2925,0.294,0.2951,0.2917,0.2925,0.2806,0.2804,0.2802,0.28,0,0.1387,0.1439,0.1461,0.1531,0.1615,0.1657,0.1703,0.1789,0.1882,0.1965,0.2026,0.2154,0.2244,0.2364,0.2417,0.2609,0.2565,0.2699,0.2814,0.288,0.2902,0.2919,0.2892,0.2904,0.2786,0.2787,0.2787,0,0.1402,0.1383,0.1396,0.1439,0.1512,0.1592,0.1586,0.1673,0.1752,0.1739,0.1897,0.1951,0.1988,0.217,0.2246,0.2214,0.2448,0.2422,0.2448,0.2291,0.2341,0.2368,0.2391,0.2087,0.2086,0.2085,0,0,0.1392,0.1392,0.1426,0.1435,0.1492,0.1545,0.1574,0.1627,0.1685,0.1745,0.18,0.1868,0.1946,0.2044,0.2059,0.2226,0.2114,0.2351,0.2384,0.2412,0.2276,0.233,0.2356,0.2082,0.2082,0.2081,0,0,0.1383,0.1374,0.142,0.1418,0.1482,0.1491,0.1547,0.1577,0.169,0.1736,0.175,0.1771,0.1924,0.1906,0.1857,0.2129,0.197,0.1981,0.2233,0.2272,0.2304,0.2136,0.1838,0,0,0,0,0,0.1367,0.1359,0.14,0.1399,0.1429,0.1466,0.1477,0.1536,0.157,0.1652,0.1715,0.1717,0.1896,0.1852,0.1863,0.206,0.2036,0.2044,0.2052,0.2402,0.2445,0.248,0,0,0,0,0,0,0.1366,0.1366,0.1397,0.1393,0.1397,0.1465,0.1469,0.1489,0.1567,0.1586,0.1699,0.1716,0.1728,0.1846,0.1856,0.2047,0.1834,0.2039,0.2046,0.2052,0.2417,0.2451,0.2481,0,0,0,0,0,0.1365,0.1365,0.1406,0.1395,0.1399,0.1453,0.1474,0.1491,0.1606,0.1604,0.1629,0.1655,0.1724,0.1741,0.1852,0.2045,0.1827,0.1831,0.2044,0.2049,0.2054,0.2434,0,0,0,0,0,0,0.1364,0.1416,0.1409,0.141,0.1417,0.1458,0.1473,0.1492,0.1627,0.1644,0.155,0.1561,0.1721,0.1735,0.1747,0.205,0.1821,0.1825,0.1828,0.2048,0.2052,0.2056,0,0,0,0,0,0,0.1413,0.1418,0.1411,0.1436,0.1443,0.1463,0.1475,0.1503,0.163,0.1574,0.1582,0.1553,0.1699,0.173,0.174,0.1781,0.1817,0.182,0.1823,0.1825,0.2051,0.2055,0,0,0,0,0,0,0.1415,0.142,0.1439,0.1443,0.145,0.1492,0.1492,0.1537,0.1605,0.157,0.1614,0.1617,0.1692,0.1705,0.1734,0.177,0.1778,0.1817,0.1819,0.1821,0.1822,0,0,0,0,0,0,0,0.1418,0.1382,0.137,0.1449,0.1455,0.1419,0.1422,0.1425,0.1606,0.1609,0.1613,0.1616,0.1796,0.18,0.1804,0.1762,0,0,0.1817,0.1818,0,0,0,0,0,0,0,0,0.1381,0.1382,0.137,0.1368,0.1367,0.1419,0.1422,0.1425,0.1606,0.1609,0.1612,0.1614,0.1797,0.18,0.1803,0,0,0,0,0,0,0,0,0,0,0,0,0,0,0,0.137,0.1368,0,0.142,0.1422,0.1424,0.1607,0.1609,0.1611,0.1613,0.1798,0.18,0.1803,0,0,0,0,0,0,0,0,0,0,0,0,0,0,0,0,0,0,0,0,0,0,0,0,0,0,0,0,0,0,0,0,0,0,0,0,0,0,0,0,0,0,0,0,0,0,0,0,0,0,0,0,0,0,0,0,0,0,0,0,0,0,0,0,0,0,0,0,0]}],[{"header":{"parameterUnit":"kt","parameterCategory":2,"dx":1,"dy":1,"la1":30.253999710083008,"la2":30.299108505249023,"lo1":-89.0895004272461,"lo2":-89.04439544677734,"nx":28,"ny":28,"refTime":"2022-10-15T21:00:00:Z","depth":"4","parameterNumber":3,"parameterNumberName":"V-component_of_CURRENTS"},"data":[0.0943,0.1038,0.1099,0.1208,0.1292,0.1408,0.148,0.148,0.1424,0.1355,0.1058,0.0921,0.0372,0.0566,-0.017,-0.0272,-0.0426,-0.096,-0.0964,-0.1223,-0.1229,-0.1233,-0.1039,0,0,0,0,0,0.0946,0.1004,0.1115,0.1225,0.1331,0.1407,0.1505,0.1538,0.1516,0.1391,0.1311,0.0953,0.041,0.0135,-0.0164,-0.034,-0.0812,-0.0694,-0.0901,-0.1227,-0.1232,-0.1042,0,0,0,0,0,0,0.0936,0.0988,0.1088,0.12,0.1312,0.14,0.1462,0.1455,0.1449,0.1296,0.1202,0.078,0.0511,0.0015,-0.0337,-0.065,-0.075,-0.0815,-0.0842,-0.0853,-0.064,-0.0371,-0.0505,0,0,0,0,0,0.0917,0.097,0.1025,0.117,0.126,0.1347,0.1429,0.1449,0.1386,0.1326,0.1101,0.0792,0.0398,-0.007,-0.0432,-0.0803,-0.1062,-0.1167,-0.1174,-0.1162,-0.1003,-0.1054,-0.1033,-0.1254,-0.1255,-0.1256,-0.1256,0,0.0885,0.0937,0.1051,0.111,0.1151,0.1233,0.1283,0.1263,0.1258,0.109,0.1049,0.0724,0.0497,-0.0084,-0.0483,-0.0979,-0.1051,-0.118,-0.1165,-0.1008,-0.1065,-0.104,-0.1017,-0.1261,-0.126,-0.126,-0.1259,0,0.0869,0.0902,0.0978,0.103,0.1066,0.1109,0.1176,0.1165,0.1087,0.1022,0.0985,0.0685,0.0338,-0.0012,-0.0521,-0.0683,-0.1024,-0.1128,-0.096,-0.103,-0.104,-0.1014,-0.1268,-0.1267,-0.1265,-0.1264,-0.1263,0,0.0839,0.0883,0.0934,0.0965,0.1029,0.1007,0.1042,0.0988,0.0902,0.086,0.0674,0.0564,0.0177,-0.0088,-0.036,-0.0685,-0.0801,-0.0911,-0.0993,-0.0938,-0.0914,-0.0998,-0.0979,-0.1148,-0.1146,-0.1144,-0.1143,0,0.0795,0.0838,0.0899,0.0905,0.0915,0.093,0.094,0.0843,0.0826,0.0665,0.0622,0.0358,0.0242,-0.0066,-0.0339,-0.0338,-0.0763,-0.0831,-0.0927,-0.0918,-0.098,-0.0964,-0.1141,-0.114,-0.114,-0.1139,-0.1138,0,0.0746,0.0785,0.0835,0.087,0.087,0.0882,0.0844,0.0822,0.068,0.0624,0.0483,0.0368,0.0177,0.013,-0.0258,-0.0164,-0.0375,-0.0541,-0.0558,-0.0486,-0.0538,-0.0612,-0.0735,-0.073,-0.0726,-0.0723,-0.072,0,0.0718,0.0767,0.0764,0.08,0.0819,0.0778,0.0759,0.0703,0.0646,0.0562,0.0415,0.0318,0.0263,0.0201,0.0037,-0.0179,-0.0331,-0.0175,-0.0593,-0.0602,-0.0471,-0.0567,-0.0418,-0.0667,-0.0673,-0.0678,-0.0682,0,0.0685,0.0714,0.0717,0.074,0.0726,0.0722,0.0697,0.0649,0.0618,0.0542,0.0474,0.0325,0.0255,0.0176,0.0064,-0.0084,-0.0253,-0.0158,-0.017,-0.0223,-0.0635,-0.0516,-0.0536,-0.0391,-0.0396,-0.0401,-0.0645,0,0.0655,0.0683,0.0692,0.07,0.0689,0.0696,0.0651,0.0626,0.0611,0.056,0.0443,0.033,0.02,0.0136,0.0097,-0.0078,-0.0106,-0.0182,-0.0199,-0.0256,-0.0352,-0.0381,-0.006,-0.0062,-0.0062,-0.0063,0,0,0.0627,0.0658,0.0644,0.065,0.0651,0.0614,0.0621,0.0588,0.0536,0.0502,0.0505,0.0298,0.0217,0.0064,0.0054,-0.0004,-0.0104,0.0002,-0.0214,-0.023,-0.0245,-0.0339,-0.0365,-0.0065,-0.0065,-0.0066,-0.0066,0,0.0613,0.0625,0.0647,0.0629,0.0616,0.0595,0.0598,0.0559,0.054,0.0504,0.0422,0.033,0.0218,0.0114,0.0047,-0.0005,-0.0114,-0.0058,-0.0019,-0.0216,-0.023,-0.0244,-0.0338,-0.0361,-0.0068,-0.0068,-0.0068,0,0.0581,0.0592,0.0601,0.0595,0.0576,0.0564,0.0536,0.0528,0.0518,0.0441,0.0407,0.0322,0.0205,0.0117,0.0071,0.0063,-0.0125,-0.0045,-0.0043,-0.0013,-0.0217,-0.0233,-0.0247,-0.0064,-0.0063,-0.0062,0,0,0.0571,0.0598,0.0568,0.0587,0.0576,0.0543,0.0533,0.0516,0.0474,0.0457,0.0397,0.0313,0.0223,0.0175,0.0097,0.002,-0.0062,-0.0038,-0.0039,-0.0038,-0.0008,-0.021,-0.0225,-0.006,-0.006,-0.006,0,0,0.0555,0.0554,0.0548,0.0569,0.0543,0.0502,0.0502,0.0486,0.0443,0.0444,0.0365,0.0343,0.0264,0.0203,0.0244,0.0071,0.0063,0.0054,0.0128,0.0126,0.0125,0.0186,0.0183,0,0,0,0,0,0.0534,0.0557,0.0553,0.0553,0.0536,0.0508,0.0502,0.0475,0.0474,0.0468,0.0415,0.0369,0.0195,0.0232,0.021,0.0161,-0.0031,-0.0036,-0.0041,0.0034,0.0034,0.0033,0,0,0,0,0,0,0.0533,0.0535,0.0551,0.0518,0.0513,0.0508,0.0488,0.048,0.0473,0.047,0.0383,0.0366,0.0306,0.0237,0.0219,0.0173,0.0189,-0.0033,-0.0037,-0.0041,0.0034,0.0033,0.0033,0,0,0,0,0,0.0533,0.0534,0.0522,0.0516,0.0512,0.0479,0.0488,0.0481,0.0473,0.0388,0.0372,0.0456,0.0308,0.0288,0.0226,0.0183,0.0201,0.0195,-0.0036,-0.0039,-0.0042,0.0034,0,0,0,0,0,0,0.0533,0.0515,0.0519,0.0516,0.0516,0.0478,0.0474,0.0482,0.0389,0.0377,0.0455,0.0453,0.0309,0.0293,0.0278,0.0189,0.0211,0.0204,0.02,-0.0038,-0.0041,-0.0044,0,0,0,0,0,0,0.0515,0.0513,0.0517,0.052,0.0516,0.0477,0.0473,0.0406,0.0386,0.0459,0.0457,0.0455,0.0312,0.0297,0.0285,0.0182,0.0219,0.0212,0.0208,0.0205,-0.0041,-0.0043,0,0,0,0,0,0,0.0513,0.0511,0.052,0.0518,0.0514,0.047,0.0412,0.0382,0.0436,0.0462,0.0435,0.0435,0.0315,0.0303,0.0289,0.0192,0.0185,0.0218,0.0214,0.0211,0.0209,0,0,0,0,0,0,0,0.0511,0.0537,0.0545,0.0516,0.0513,0.0484,0.0483,0.0481,0.0436,0.0436,0.0435,0.0435,0.0255,0.0248,0.0241,0.0201,0,0,0.0219,0.0216,0,0,0,0,0,0,0,0,0.0536,0.0537,0.0544,0.0544,0.0544,0.0484,0.0483,0.0481,0.0436,0.0436,0.0435,0.0435,0.0253,0.0247,0.0242,0,0,0,0,0,0,0,0,0,0,0,0,0,0,0,0.0544,0.0544,0,0.0484,0.0483,0.0482,0.0436,0.0436,0.0435,0.0435,0.0251,0.0247,0.0242,0,0,0,0,0,0,0,0,0,0,0,0,0,0,0,0,0,0,0,0,0,0,0,0,0,0,0,0,0,0,0,0,0,0,0,0,0,0,0,0,0,0,0,0,0,0,0,0,0,0,0,0,0,0,0,0,0,0,0,0,0,0,0,0,0,0,0,0,0]}]]]